When you browse on this site, cookies collect data to enhance your experience and personalize the content and advertising you see.
Visit our Privacy Policy to learn more. By continuing to use the site, you agree to this use of cookies and data.
  • In United Kingdom
  • List of Countries
  • For 7 days
  • Water Temperature
  • Satellite Maps
  • Weather Map
  • Weather Widgets
  • user-avatar
    Login

    Hourly Weather Minturno

    Today, 22 March, Friday

    Time Temperature Precipitation Wind Pressure Humidity
    00:00 +11°C° 0 mm 4 mps 766 mmHg 68%
    01:00 +11°C° 0 mm 4 mps 766 mmHg 64%
    02:00 +11°C° 0 mm 4 mps 766 mmHg 62%
    03:00 +11°C° 0 mm 4 mps 766 mmHg 61%
    04:00 +10°C° 0 mm 4 mps 766 mmHg 59%
    05:00 +11°C° 0 mm 4 mps 766 mmHg 60%
    06:00 +11°C° 0 mm 4 mps 766 mmHg 60%
    07:00 +11°C° 0 mm 4 mps 766 mmHg 60%
    08:00 +14°C° 0 mm 4 mps 766 mmHg 56%
    09:00 +17°C° 0 mm 4 mps 765 mmHg 52%
    10:00 +19°C° 0 mm 4 mps 765 mmHg 47%
    11:00 +20°C° 0 mm 4 mps 765 mmHg 46%
    12:00 +21°C° 0 mm 4 mps 765 mmHg 45%
    13:00 +21°C° 0 mm 4 mps 765 mmHg 44%
    14:00 +21°C° 0 mm 4 mps 765 mmHg 45%
    15:00 +21°C° 0 mm 4 mps 765 mmHg 47%
    16:00 +21°C° 0 mm 3 mps 764 mmHg 48%
    17:00 +19°C° 0 mm 3 mps 764 mmHg 56%
    18:00 +17°C° 0 mm 2 mps 764 mmHg 63%
    19:00 +15°C° 0 mm 2 mps 764 mmHg 70%
    20:00 +14°C° 0 mm 2 mps 765 mmHg 72%
    21:00 +14°C° 0 mm 2 mps 765 mmHg 74%
    22:00 +13°C° 0 mm 2 mps 765 mmHg 75%
    23:00 +13°C° 0 mm 2 mps 765 mmHg 73%

    Tomorrow, 23 March, Saturday

    Time Temperature Precipitation Wind Pressure Humidity
    00:00 +12°C° 0 mm 2 mps 765 mmHg 71%
    01:00 +12°C° 0 mm 2 mps 765 mmHg 68%
    02:00 +12°C° 0 mm 2 mps 764 mmHg 65%
    03:00 +12°C° 0 mm 2 mps 764 mmHg 62%
    04:00 +10°C° 0 mm 2 mps 764 mmHg 59%
    05:00 +10°C° 0 mm 2 mps 764 mmHg 59%
    06:00 +12°C° 0 mm 2 mps 764 mmHg 58%
    07:00 +12°C° 0 mm 2 mps 764 mmHg 58%
    08:00 +14°C° 0 mm 2 mps 764 mmHg 53%
    09:00 +16°C° 0 mm 1 mps 764 mmHg 48%
    10:00 +20°C° 0 mm 1 mps 764 mmHg 43%
    11:00 +21°C° 0 mm 1 mps 764 mmHg 42%
    12:00 +22°C° 0 mm 1 mps 764 mmHg 41%
    13:00 +22°C° 0 mm 1 mps 764 mmHg 39%
    14:00 +21°C° 0 mm 2 mps 763 mmHg 42%
    15:00 +21°C° 0 mm 2 mps 763 mmHg 44%
    16:00 +21°C° 0 mm 2 mps 763 mmHg 46%
    17:00 +19°C° 0 mm 2 mps 763 mmHg 55%
    18:00 +17°C° 0 mm 2 mps 763 mmHg 63%
    19:00 +15°C° 0 mm 2 mps 763 mmHg 71%
    20:00 +15°C° 0 mm 2 mps 763 mmHg 72%
    21:00 +14°C° 0 mm 2 mps 764 mmHg 72%
    22:00 +14°C° 0 mm 2 mps 764 mmHg 72%
    23:00 +13°C° 0 mm 2 mps 764 mmHg 70%

    Day after tomorrow, 24 March, Sunday

    Time Temperature Precipitation Wind Pressure Humidity
    00:00 +13°C° 0 mm 2 mps 764 mmHg 67%
    01:00 +13°C° 0 mm 2 mps 764 mmHg 65%
    02:00 +13°C° 0 mm 2 mps 764 mmHg 61%
    03:00 +13°C° 0 mm 2 mps 764 mmHg 58%
    04:00 +12°C° 0 mm 2 mps 763 mmHg 54%
    05:00 +12°C° 0 mm 2 mps 763 mmHg 53%
    06:00 +13°C° 0 mm 2 mps 763 mmHg 52%
    07:00 +13°C° 0 mm 1 mps 763 mmHg 52%
    08:00 +15°C° 0 mm 1 mps 764 mmHg 49%
    09:00 +18°C° 0 mm 1 mps 764 mmHg 47%
    10:00 +18°C° 0 mm 0 mps 764 mmHg 44%
    11:00 +21°C° 0 mm 1 mps 764 mmHg 45%
    12:00 +20°C° 0 mm 2 mps 763 mmHg 46%
    13:00 +21°C° 0 mm 3 mps 763 mmHg 48%
    14:00 +20°C° 0 mm 3 mps 763 mmHg 52%
    15:00 +20°C° 0 mm 3 mps 763 mmHg 56%
    16:00 +20°C° 0 mm 3 mps 762 mmHg 60%
    17:00 +18°C° 0 mm 2 mps 762 mmHg 67%
    18:00 +16°C° 0 mm 2 mps 763 mmHg 75%
    19:00 +14°C° 0 mm 1 mps 763 mmHg 82%
    20:00 +14°C° 0 mm 1 mps 763 mmHg 82%
    21:00 +14°C° 0 mm 1 mps 763 mmHg 82%
    22:00 +13°C° 0 mm 1 mps 763 mmHg 81%
    23:00 +13°C° 0 mm 1 mps 763 mmHg 81%

    25 March, Monday

    Time Temperature Precipitation Wind Pressure Humidity
    00:00 +13°C° 0 mm 1 mps 763 mmHg 80%
    01:00 +13°C° 0 mm 1 mps 763 mmHg 80%
    02:00 +12°C° 0 mm 1 mps 763 mmHg 80%
    03:00 +12°C° 0 mm 1 mps 762 mmHg 80%
    04:00 +12°C° 0 mm 1 mps 762 mmHg 80%
    05:00 +12°C° 0 mm 1 mps 762 mmHg 80%
    06:00 +12°C° 0 mm 1 mps 762 mmHg 79%
    07:00 +13°C° 0 mm 1 mps 762 mmHg 78%
    08:00 +14°C° 0 mm 1 mps 762 mmHg 72%
    09:00 +16°C° 0 mm 1 mps 762 mmHg 66%
    10:00 +19°C° 0 mm 1 mps 762 mmHg 61%
    11:00 +18°C° 0 mm 2 mps 762 mmHg 59%
    12:00 +19°C° 0 mm 2 mps 761 mmHg 57%
    13:00 +19°C° 0 mm 3 mps 761 mmHg 56%
    14:00 +19°C° 0 mm 3 mps 760 mmHg 58%
    15:00 +19°C° 0 mm 3 mps 760 mmHg 60%
    16:00 +18°C° 0 mm 3 mps 760 mmHg 61%
    17:00 +17°C° 0 mm 3 mps 759 mmHg 68%
    18:00 +15°C° 0 mm 2 mps 759 mmHg 75%
    19:00 +13°C° 0 mm 1 mps 759 mmHg 82%
    20:00 +13°C° 0 mm 1 mps 759 mmHg 83%
    21:00 +13°C° 0 mm 1 mps 760 mmHg 83%
    22:00 +12°C° 0 mm 1 mps 760 mmHg 84%
    23:00 +12°C° 0 mm 1 mps 760 mmHg 84%

    26 March, Tuesday

    Time Temperature Precipitation Wind Pressure Humidity
    00:00 +12°C° 0 mm 1 mps 759 mmHg 83%
    01:00 +11°C° 0 mm 1 mps 759 mmHg 83%
    02:00 +11°C° 0 mm 1 mps 759 mmHg 83%
    03:00 +11°C° 0 mm 1 mps 759 mmHg 83%
    04:00 +11°C° 0 mm 1 mps 759 mmHg 83%
    05:00 +10°C° 0 mm 2 mps 760 mmHg 80%
    06:00 +11°C° 0 mm 3 mps 760 mmHg 77%
    07:00 +11°C° 0 mm 4 mps 761 mmHg 74%
    08:00 +12°C° 0 mm 5 mps 762 mmHg 66%
    09:00 +13°C° 0 mm 6 mps 762 mmHg 57%
    10:00 +13°C° 0 mm 6 mps 763 mmHg 48%
    11:00 +11°C° 0.2 mm 6 mps 763 mmHg 49%
    12:00 +10°C° 0.2 mm 6 mps 763 mmHg 50%
    13:00 +9°C° 0.2 mm 6 mps 763 mmHg 52%
    14:00 +10°C° 0 mm 6 mps 763 mmHg 47%
    15:00 +11°C° 0 mm 6 mps 763 mmHg 43%
    16:00 +13°C° 0 mm 6 mps 763 mmHg 39%
    17:00 +10°C° 0 mm 6 mps 764 mmHg 42%
    18:00 +9°C° 0 mm 5 mps 764 mmHg 45%
    19:00 +7°C° 0 mm 4 mps 765 mmHg 48%
    20:00 +7°C° 0 mm 4 mps 765 mmHg 50%
    21:00 +7°C° 0 mm 3 mps 766 mmHg 52%
    22:00 +7°C° 0 mm 3 mps 766 mmHg 53%
    23:00 +7°C° 0 mm 3 mps 766 mmHg 55%

    27 March, Wednesday

    Time Temperature Precipitation Wind Pressure Humidity
    00:00 +7°C° 0 mm 3 mps 766 mmHg 56%
    01:00 +5°C° 0 mm 3 mps 766 mmHg 58%
    02:00 +5°C° 0 mm 3 mps 766 mmHg 59%
    03:00 +5°C° 0 mm 3 mps 766 mmHg 60%
    04:00 +6°C° 0 mm 2 mps 766 mmHg 61%
    05:00 +6°C° 0 mm 2 mps 766 mmHg 62%
    06:00 +6°C° 0 mm 2 mps 766 mmHg 63%
    07:00 +7°C° 0 mm 1 mps 766 mmHg 64%
    08:00 +8°C° 0 mm 2 mps 767 mmHg 56%
    09:00 +10°C° 0 mm 2 mps 767 mmHg 49%
    10:00 +12°C° 0 mm 3 mps 767 mmHg 42%
    11:00 +12°C° 0 mm 3 mps 767 mmHg 40%
    12:00 +13°C° 0 mm 3 mps 767 mmHg 38%
    13:00 +14°C° 0 mm 3 mps 767 mmHg 36%
    14:00 +14°C° 0 mm 3 mps 766 mmHg 37%
    15:00 +15°C° 0 mm 2 mps 766 mmHg 37%
    16:00 +15°C° 0 mm 2 mps 766 mmHg 38%
    17:00 +14°C° 0 mm 2 mps 766 mmHg 43%
    18:00 +12°C° 0 mm 2 mps 767 mmHg 48%
    19:00 +10°C° 0 mm 1 mps 767 mmHg 53%
    20:00 +9°C° 0 mm 2 mps 767 mmHg 55%
    21:00 +8°C° 0 mm 2 mps 768 mmHg 58%
    22:00 +7°C° 0 mm 2 mps 768 mmHg 60%
    23:00 +7°C° 0 mm 2 mps 768 mmHg 59%
    Show more